DJ6OI-23 Weather Reports


Display with metric or nautical units.
time (UTC)temp
F
wind
direction
speed
MPH
gust
MPH
rain 1hr
in
rain 24hr
in
rain mn
in
humidity
%
barometer
mb
20260902205716 58 0.0 0.0 0.00 0.00 0.00 74 1000.1
20260902204141 58 0.0 0.0 0.00 0.00 0.00 73 1000.1
20260902202607 58 0.0 0.0 0.00 0.00 0.00 73 1000.1
20260902201032 57 0.0 0.0 0.00 0.00 0.00 72 1000.1
20260902195457 57 0.0 0.0 0.00 0.00 0.00 70 1000.1
20260902193922 58 0.0 0.0 0.00 0.00 0.00 69 1000.1
20260902192347 58 0.0 0.0 0.00 0.00 0.00 67 1000.2
20260902190812 59 0.0 0.0 0.00 0.00 0.00 65 100.0
20260902185237 60 0.0 0.0 0.00 0.00 0.00 64 999.9
20260902183702 61 0.0 0.0 0.00 0.00 0.00 62 999.8
20260902182127 63 0.0 0.0 0.00 0.00 0.00 60 999.6
20260902180552 65 0.0 0.0 0.00 0.00 0.00 58 999.4
20260902175017 68 0.0 0.0 0.00 0.00 0.00 55 999.4
20260902173443 73 0.0 0.0 0.00 0.00 0.00 53 999.3
20260902171908 74 0.0 0.0 0.00 0.00 0.00 52 999.2
20260902170333 75 0.0 0.0 0.00 0.00 0.00 52 999.3
20260902164758 75 0.0 0.0 0.00 0.00 0.00 52 999.1
20260902163223 77 0.0 0.0 0.00 0.00 0.00 51 999.1
20260902161648 77 0.0 0.0 0.00 0.00 0.00 51 999.2
20260902160113 77 0.0 0.0 0.00 0.00 0.00 51 999.3
20260902154538 76 0.0 0.0 0.00 0.00 0.00 52 999.3
20260902153003 78 0.0 0.0 0.00 0.00 0.00 51 999.3
20260902151428 76 0.0 0.0 0.00 0.00 0.00 52 999.3
20260902145853 76 0.0 0.0 0.00 0.00 0.00 52 999.4
20260902144318 75 0.0 0.0 0.00 0.00 0.00 53 999.4
20260902142744 76 0.0 0.0 0.00 0.00 0.00 53 999.5
20260902141209 75 0.0 0.0 0.00 0.00 0.00 55 999.5
20260902135634 75 0.0 0.0 0.00 0.00 0.00 55 999.4
20260902134059 76 0.0 0.0 0.00 0.00 0.00 55 999.4
20260902132524 76 0.0 0.0 0.00 0.00 0.00 56 999.3
20260902130949 78 0.0 0.0 0.00 0.00 0.00 54 999.4
20260902125414 76 0.0 0.0 0.00 0.00 0.00 58 999.3
20260902123839 75 0.0 0.0 0.00 0.00 0.00 59 999.5
20260902122305 80 0.0 0.0 0.00 0.00 0.00 57 999.4
20260902120729 80 0.0 0.0 0.00 0.00 0.00 58 999.8
20260902115154 82 0.0 0.0 0.00 0.00 0.00 59 999.7
20260902113619 81 0.0 0.0 0.00 0.00 0.00 60 999.8
20260902112045 81 0.0 0.0 0.00 0.00 0.00 62 999.7
20260902110510 79 0.0 0.0 0.00 0.00 0.00 65 999.8
20260902104935 80 0.0 0.0 0.00 0.00 0.00 63 100.0
20260902103400 79 0.0 0.0 0.00 0.00 0.00 64 1000.2
20260902101825 76 0.0 0.0 0.00 0.00 0.00 68 1000.3
20260902100250 69 0.0 0.0 0.00 0.00 0.00 80 1000.4
20260902094715 69 0.0 0.0 0.00 0.00 0.00 81 1000.3
20260902093140 76 0.0 0.0 0.00 0.00 0.00 72 1000.2
20260902091605 78 0.0 0.0 0.00 0.00 0.00 69 1000.4
20260902090030 76 0.0 0.0 0.00 0.00 0.00 72 1000.3
20260902084456 74 0.0 0.0 0.00 0.00 0.00 75 1000.3
20260902082920 73 0.0 0.0 0.00 0.00 0.00 78 1000.2
20260902081346 71 0.0 0.0 0.00 0.00 0.00 82 1000.2
20260902075811 68 0.0 0.0 0.00 0.00 0.00 88 1000.5
20260902074236 66 0.0 0.0 0.00 0.00 0.00 92 1000.5
20260902072701 65 0.0 0.0 0.00 0.00 0.00 92 1000.5
20260902071126 63 0.0 0.0 0.00 0.00 0.00 97 1000.5
20260902065551 61 0.0 0.0 0.00 0.00 0.00 99 1000.5
20260902064016 59 0.0 0.0 0.00 0.00 0.00 10 1000.4
20260902062441 58 0.0 0.0 0.00 0.00 0.00 10 1000.4
20260902060906 56 0.0 0.0 0.00 0.00 0.00 10 1000.4
20260902055331 55 0.0 0.0 0.00 0.00 0.00 10 1000.4
20260902053756 55 0.0 0.0 0.00 0.00 0.00 10 1000.4
20260902052222 54 0.0 0.0 0.00 0.00 0.00 10 1000.5
20260902050647 53 0.0 0.0 0.00 0.00 0.00 10 1000.4
20260902045112 54 0.0 0.0 0.00 0.00 0.00 10 1000.4
20260902043537 54 0.0 0.0 0.00 0.00 0.00 10 1000.4
20260902041720 0 0.0 0.0 0.00 0.00 0.00 10 1137.1
20260902040145 53 0.0 0.0 0.00 0.00 0.00 10 1000.6
20260902034610 53 0.0 0.0 0.00 0.00 0.00 10 1000.7
20260902033035 53 0.0 0.0 0.00 0.00 0.00 10 1000.7
20260902031501 52 0.0 0.0 0.00 0.00 0.00 10 1000.5
20260902025926 52 0.0 0.0 0.00 0.00 0.00 10 1000.7
20260902024351 52 0.0 0.0 0.00 0.00 0.00 10 1000.7
20260902022816 52 0.0 0.0 0.00 0.00 0.00 10 1000.8
20260902021241 52 0.0 0.0 0.00 0.00 0.00 10 1000.8
20260902015706 52 0.0 0.0 0.00 0.00 0.00 10 1000.8
20260902012556 52 0.0 0.0 0.00 0.00 0.00 10 1000.6
20260902011021 52 0.0 0.0 0.00 0.00 0.00 10 1000.7
20260902005446 52 0.0 0.0 0.00 0.00 0.00 10 1000.7
20260902003911 52 0.0 0.0 0.00 0.00 0.00 10 1000.7
20260902002337 51 0.0 0.0 0.00 0.00 0.00 10 1000.8
20260902000802 51 0.0 0.0 0.00 0.00 0.00 10 1000.9
20260901235227 51 0.0 0.0 0.00 0.00 0.00 10 1001.0
20260901233652 51 0.0 0.0 0.00 0.00 0.00 10 1000.9
20260901232117 51 0.0 0.0 0.00 0.00 0.00 10 1001.0
20260901230542 52 0.0 0.0 0.00 0.00 0.00 10 1000.8
20260901225007 52 0.0 0.0 0.00 0.00 0.00 10 1000.8
20260901223432 52 0.0 0.0 0.00 0.00 0.00 10 1000.7
20260901221857 53 0.0 0.0 0.00 0.00 0.00 10 1000.7
20260901220322 53 0.0 0.0 0.00 0.00 0.00 10 1000.7
20260901214747 54 0.0 0.0 0.00 0.00 0.00 10 1000.7
20260901213213 54 0.0 0.0 0.00 0.00 0.00 10 1000.8
20260901211638 54 0.0 0.0 0.00 0.00 0.00 10 1000.8